Location: Babice
(50.3480°N, 22.9363°E)
Time: 01:55:53
(UTC+00:00)

NOSS 7 (D) - Pass Details

Date: 14 July 2020
Orbit: 308 x 627 km, 63.3° (Epoch: 06 August)

Event Time Altitude Azimuth Distance (km) Brightness Sun altitude
Rises 00:25:52 0° 314° (NW) 2,082 8.0 -13.9°
Reaches altitude 10° 00:27:46 10° 311° (NW) 1,273 6.9 -13.8°
Maximum altitude 00:30:31 64° 229° (SW) 396 3.8 -13.6°
Drops below altitude 10° 00:33:32 10° 147° (SSE) 1,387 6.6 -13.3°
Enters shadow 00:33:48 - 147° (SSE) 1,502 6.8 -13.3°
